BEIDOU-3 M24 (C46)

Last updated on Sat Aug 15 2026 00:03:26 GMT+0000 (Coordinated Universal Time)

1 44542U 19061A 26226.23346653 .00000011 00000+0 00000+0 0 9996 2 44542 54.3966 180.7711 0008944 4.7276 355.2355 1.86229197 46878
UTC large
Height (km)
Speed (km/s)
/
Latitude / Longitude
Inclination (degrees)
Orbital Period (minutes)
Azimuth
Elevation
Range (km)
Doppler Factor

Next 0 passes for location: London (51.5072 / 0.1276)

No passes found over London.
BEIDOU-3 M24 (C46)